EA1AY-13 Weather Reports


time (UTC)temp
C
wind
direction
speed
KPH
gust
KPH
rain 1hr
cm
rain 24hr
cm
rain mn
cm
humidity
%
barometer
mb
20260905203517 26 0.0 3.2 0.00 0.00 0.00 61 1019.9
20260905202517 26 0.0 3.2 0.00 0.00 0.00 63 1019.8
20260905201517 26 0.0 1.6 0.00 0.00 0.00 65 1019.7
20260905200517 26 0.0 6.4 0.00 0.00 0.00 66 1019.7
20260905195517 25 293 3.2 6.4 0.00 0.00 0.00 72 1019.7
20260905194517 25 0.0 4.8 0.00 0.00 0.00 74 1019.7
20260905193517 24 293 4.8 12.9 0.00 0.00 0.00 75
20260905192517 23 293 3.2 9.7 0.00 0.00 0.00 81
20260905191517 22 293 1.6 6.4 0.00 0.00 0.00 81
20260905190517 22 293 1.6 4.8 0.00 0.00 0.00 81
20260905185517 22 0.0 4.8 0.00 0.00 0.00 81
20260905184538 22 293 4.8 11.3 0.00 0.00 0.00 82
20260905183516 23 293 1.6 3.2 0.00 0.00 0.00 82
20260905182517 23 293 1.6 3.2 0.00 0.00 0.00 82
20260905181537 23 0.0 1.6 0.00 0.00 0.00 82
20260905180517 23 0.0 3.2 0.00 0.00 0.00 82
20260905175517 23 0.0 1.6 0.00 0.00 0.00 82
20260905174518 23 293 1.6 6.4 0.00 0.00 0.00 82
20260905173558 23 293 1.6 6.4 0.00 0.00 0.00 80
20260905172517 24 293 1.6 6.4 0.00 0.00 0.00 78
20260905171517 25 293 1.6 4.8 0.00 0.00 0.00 77
20260905170517 25 293 1.6 8.0 0.00 0.00 0.00 76
20260905164517 26 293 1.6 6.4 0.00 0.00 0.00 76
20260905163516 26 293 1.6 4.8 0.00 0.00 0.00 75
20260905162517 26 293 1.6 3.2 0.00 0.00 0.00 75
20260905161517 26 293 1.6 4.8 0.00 0.00 0.00 74
20260905160517 26 293 3.2 9.7 0.00 0.00 0.00 73
20260905155537 26 293 1.6 6.4 0.00 0.00 0.00 72
20260905154516 27 293 3.2 8.0 0.00 0.00 0.00 72
20260905153516 27 293 1.6 4.8 0.00 0.00 0.00 71
20260905152517 27 293 1.6 8.0 0.00 0.00 0.00 71
20260905151517 27 293 1.6 4.8 0.00 0.00 0.00 71
20260905150537 27 293 1.6 4.8 0.00 0.00 0.00 71 1019.3
20260905145517 27 293 3.2 6.4 0.00 0.00 0.00 71 1019.4
20260905144517 27 293 3.2 9.7 0.00 0.00 0.00 70 1019.5
20260905143517 27 293 1.6 6.4 0.00 0.00 0.00 70 1019.5
20260905142517 27 293 3.2 6.4 0.00 0.00 0.00 70 1019.6
20260905141517 27 293 1.6 6.4 0.00 0.00 0.00 70 1019.8
20260905140516 27 293 3.2 6.4 0.00 0.00 0.00 70 1019.8
20260905135517 27 293 1.6 4.8 0.00 0.00 0.00 70 1019.8
20260905134537 27 293 1.6 4.8 0.00 0.00 0.00 70 1019.9
20260905133517 27 293 3.2 8.0 0.00 0.00 0.00 71 1020.1
20260905132517 26 293 3.2 8.0 0.00 0.00 0.00 72 1020.1
20260905131537 26 293 1.6 8.0 0.00 0.00 0.00 74 1020.2
20260905130516 26 293 1.6 11.3 0.00 0.00 0.00 72 1020.3
20260905125517 26 293 3.2 9.7 0.00 0.00 0.00 72 1020.3
20260905124517 26 0.0 4.8 0.00 0.00 0.00 73 1020.4
20260905123516 26 293 1.6 4.8 0.00 0.00 0.00 74 1020.5
20260905122516 26 293 1.6 4.8 0.00 0.00 0.00 75 1020.5
20260905121516 26 293 3.2 9.7 0.00 0.00 0.00 75 1020.6
20260905120517 25 293 3.2 14.5 0.00 0.00 0.00 75 1020.7
20260905115517 25 293 4.8 17.7 0.00 0.00 0.00 75 1020.7
20260905114517 25 293 4.8 12.9 0.00 0.00 0.00 76 1020.8
20260905113516 26 293 3.2 9.7 0.00 0.00 0.00 75 1020.9
20260905112517 26 293 3.2 9.7 0.00 0.00 0.00 73 1021.1
20260905111537 26 293 3.2 11.3 0.00 0.00 0.00 73 1021.2
20260905110536 26 293 3.2 8.0 0.00 0.00 0.00 74 1021.3
20260905105516 25 293 3.2 6.4 0.00 0.00 0.00 75 1021.6
20260905104517 25 293 4.8 12.9 0.00 0.00 0.00 75 1021.7
20260905103516 25 293 3.2 6.4 0.00 0.00 0.00 76 1021.6
20260905102517 25 293 1.6 8.0 0.00 0.00 0.00 76 1021.7
20260905101537 25 293 3.2 8.0 0.00 0.00 0.00 76 1021.8
20260905100517 25 293 1.6 4.8 0.00 0.00 0.00 78 1021.8
20260905095516 24 293 3.2 9.7 0.00 0.00 0.00 79 1021.9
20260905094536 24 293 3.2 11.3 0.00 0.00 0.00 79 1021.9
20260905093516 24 293 3.2 11.3 0.00 0.00 0.00 78 1021.8
20260905092517 24 293 1.6 4.8 0.00 0.00 0.00 80 1021.8
20260905091516 23 293 3.2 9.7 0.00 0.00 0.00 80 1021.7
20260905090537 23 293 1.6 6.4 0.00 0.00 0.00 81 1021.6
20260905085516 23 293 3.2 6.4 0.00 0.00 0.00 82 1021.6
20260905084517 23 293 1.6 6.4 0.00 0.00 0.00 82 1021.5
20260905083517 22 293 1.6 3.2 0.00 0.00 0.00 81 1021.5
20260905082517 22 0.0 4.8 0.00 0.00 0.00 80 1021.4
20260905081517 21 293 1.6 4.8 0.00 0.00 0.00 80 1021.4
20260905080516 21 293 1.6 4.8 0.00 0.00 0.00 79 1021.3
20260905075516 21 293 1.6 4.8 0.00 0.00 0.00 77 1021.4
20260905074517 21 293 1.6 4.8 0.00 0.00 0.00 77 1021.5
20260905073539 21 0.0 0.0 0.00 0.00 0.00
20260905073017 -17 0.0 0.0 0.00 0.00 0.00
20260905072017 -17 0.0 0.0 0.00 0.00 0.00
20260905071522 -17 0.0 0.0 0.00 0.00 0.00
20260905071039 -17 0.0 0.0 0.00 0.00 0.00
20260905070516 -17 0.0 0.0 0.00 0.00 0.00
20260905065516 -17 0.0 0.0 0.00 0.00 0.00
20260905065023 -17 0.0 0.0 0.00 0.00 0.00
20260905064539 -17 0.0 0.0 0.00 0.00 0.00
20260905064016 -17 0.0 0.0 0.00 0.00 0.00
20260905063016 -17 0.0 0.0 0.00 0.00 0.00
20260905062523 -17 0.0 0.0 0.00 0.00 0.00
20260905062039 -17 0.0 0.0 0.00 0.00 0.00
20260905061516 -17 0.0 0.0 0.00 0.00 0.00
20260905060537 -17 0.0 0.0 0.00 0.00 0.00
20260905060022 -17 0.0 0.0 0.00 0.00 0.00
20260905055539 -17 0.0 0.0 0.00 0.00 0.00
20260905055017 -17 0.0 0.0 0.00 0.00 0.00
20260905054016 -17 0.0 0.0 0.00 0.00 0.00
20260905053523 -17 0.0 0.0 0.00 0.00 0.00
20260905053059 -17 0.0 0.0 0.00 0.00 0.00
20260905052537 -17 0.0 0.0 0.00 0.00 0.00
20260905051517 -17 0.0 0.0 0.00 0.00 0.00
20260905051022 -17 0.0 0.0 0.00 0.00 0.00
20260905050539 -17 0.0 0.0 0.00 0.00 0.00
20260905050017 -17 0.0 0.0 0.00 0.00 0.00
20260905045016 -17 0.0 0.0 0.00 0.00 0.00
20260905044523 -17 0.0 0.0 0.00 0.00 0.00
20260905044039 -17 0.0 0.0 0.00 0.00 0.00
20260905043516 -17 0.0 0.0 0.00 0.00 0.00
20260905042516 -17 0.0 0.0 0.00 0.00 0.00
20260905042051 -17 0.0 0.0 0.00 0.00 0.00
20260905041619 -17 0.0 0.0 0.00 0.00 0.00
20260905041016 -17 0.0 0.0 0.00 0.00 0.00
20260905040037 -17 0.0 0.0 0.00 0.00 0.00
20260905035542 -17 0.0 0.0 0.00 0.00 0.00
20260905035039 -17 0.0 0.0 0.00 0.00 0.00
20260905034536 -17 0.0 0.0 0.00 0.00 0.00
20260905033517 -17 0.0 0.0 0.00 0.00 0.00
20260905033022 -17 0.0 0.0 0.00 0.00 0.00
20260905032600 -17 0.0 0.0 0.00 0.00 0.00
20260905032017 -17 0.0 0.0 0.00 0.00 0.00
20260905031016 -17 0.0 0.0 0.00 0.00 0.00
20260905030522 -17 0.0 0.0 0.00 0.00 0.00
20260905030039 -17 0.0 0.0 0.00 0.00 0.00
20260905025036 -17 0.0 0.0 0.00 0.00 0.00
20260905024044 20 0.0 0.0 0.00 0.00 0.00 78 1022.3
20260905023632 20 0.0 0.0 0.00 0.00 0.00 78 1022.4
20260905023017 20 0.0 1.6 0.00 0.00 0.00 78 1022.4
20260905022016 20 0.0 3.2 0.00 0.00 0.00 77 1022.4
20260905021016 20 293 1.6 3.2 0.00 0.00 0.00 77 1022.2
20260905020016 20 0.0 3.2 0.00 0.00 0.00 77 1022.1
20260905015036 20 0.0 4.8 0.00 0.00 0.00 78 1022.3
20260905014016 20 293 1.6 4.8 0.00 0.00 0.00 78 1022.6
20260905013017 20 0.0 3.2 0.00 0.00 0.00 79 1022.6
20260905012016 21 293 1.6 6.4 0.00 0.00 0.00 79 1022.6
20260905011016 21 293 1.6 4.8 0.00 0.00 0.00 79 1022.8
20260905010016 21 0.0 3.2 0.00 0.00 0.00 80 1023.0
20260905005016 21 0.0 3.2 0.00 0.00 0.00 80 1023.2
20260905004016 21 293 1.6 4.8 0.00 0.00 0.00 79 1023.4
20260905003017 20 0.0 4.8 0.00 0.00 0.00 79 1023.8
20260905002017 20 0.0 3.2 0.00 0.00 0.00 80 1023.7
20260905001016 20 293 3.2 9.7 0.00 0.00 0.00 80 1023.8
20260905000016 20 293 1.6 6.4 0.00 0.00 0.00 80 1023.8
20260904235016 20 293 1.6 8.0 0.00 0.00 0.00 80 1023.8
20260904234056 21 293 1.6 6.4 0.00 0.00 0.00 80 1023.8
20260904233017 20 0.0 6.4 0.00 0.00 0.00 80 1023.8
20260904232016 21 293 1.6 9.7 0.00 0.00 0.00 81 1023.7
20260904231036 21 0.0 4.8 0.00 0.00 0.00 81 1023.6
20260904230036 21 293 1.6 9.7 0.00 0.00 0.00 81 1023.5
20260904225016 21 0.0 3.2 0.00 0.00 0.00 81 1023.6
20260904224016 20 293 1.6 4.8 0.00 0.00 0.00 81 1023.5
20260904223016 20 0.0 3.2 0.00 0.00 0.00 81 1023.5
20260904222016 20 0.0 1.6 0.00 0.00 0.00 81 1023.5
20260904221016 21 0.0 1.6 0.00 0.00 0.00 81 1023.5
20260904220016 21 0.0 3.2 0.00 0.00 0.00 81 1023.6
20260904215037 21 0.0 4.8 0.00 0.00 0.00 81 1023.6
20260904214017 21 0.0 3.2 0.00 0.00 0.00 82 1023.7
20260904213017 21 0.0 3.2 0.00 0.00 0.00 82 1023.7
20260904212017 20 0.0 4.8 0.00 0.00 0.00 82 1023.7
20260904211018 21 0.0 0.0 0.00 0.00 0.00 82 1023.8
20260904210017 21 0.0 0.0 0.00 0.00 0.00 82 1023.8
20260904205058 21 0.0 1.6 0.00 0.00 0.00 82 1023.9
20260904204017 21 0.0 1.6 0.00 0.00 0.00 82 1023.8